Flight Track Log - Related Links

Times and Time Zones

All times are in EST time to prevent confusion due to time zone crossing. See the UAL4533 flight status page for this flight to view local times or setup timezone preferences in your user account.

Time Position Orientation Groundspeed Altitude Reporting Facility
EST Latitude Longitude Course Direction KTS MPH feet Rate Location/Type
08:19AM 42.9167 -78.7500 75° East 157 181 1,800  Level Buffalo TRACON
08:20AM 42.8833 -78.7833 216° Southwest 200 230 4,400 2,389 Climbing Buffalo TRACON
08:21AM 42.8500 -78.7189 125° Southeast 256 295 6,300 2,684 Climbing Cleveland Center
08:22AM 42.7706 -78.3607 98° East  Level Estimated
08:22AM 42.8486 -78.6050 91° East 288 331 9,500  Level Cleveland Center
08:23AM 42.7280 -78.2686 95° East  Level Estimated
08:23AM 42.8478 -78.4858 91° East 320 368 10,900  Level Cleveland Center
08:24AM 42.7483 -78.1632 75° East  Level FlightAware Approximate
08:24AM 42.8453 -78.3472 91° East 366 421 12,500  Level Cleveland Center
08:25AM 42.8428 -78.2017 91° East 386 444 14,300 1,756 Climbing Cleveland Center
08:26AM 42.8403 -78.0517 91° East 394 453 16,100 1,659 Climbing Cleveland Center
08:27AM 42.8372 -77.8978 91° East 403 464 17,700 1,672 Climbing Cleveland Center
08:28AM 42.8342 -77.7422 91° East 405 466 19,500 1,770 Climbing Cleveland Center
08:29AM 42.8319 -77.5836 91° East 410 472 21,300 1,756 Climbing Cleveland Center
08:30AM 42.8289 -77.4244 91° East 414 476 23,100 1,659 Climbing Cleveland Center
08:31AM 42.8256 -77.2661 92° East 416 479 24,700 934 Climbing Cleveland Center
08:32AM 42.8236 -77.1008 91° East 427 491 25,000 151 Climbing Cleveland Center
08:33AM 42.7958 -76.9347 103° East 451 519 25,000  Level Boston Center
08:34AM 42.7333 -76.7919 121° Southeast 439 505 25,000  Level Boston Center
08:35AM 42.6675 -76.6447 121° Southeast 449 517 25,000  Level Boston Center
08:36AM 42.6000 -76.4950 121° Southeast 462 532 25,000  Level Boston Center
08:37AM 42.5328 -76.3425 121° Southeast 470 541 25,000  Level Boston Center
08:38AM 42.4653 -76.1931 121° Southeast 474 545 25,000 -252 Level Boston Center
08:39AM 42.3975 -76.0414 121° Southeast 476 548 24,500 -744 Descending Boston Center
08:40AM 42.3278 -75.8900 122° Southeast 478 550 23,500 -1,258 Descending Boston Center
08:41AM 42.2478 -75.7153 122° Southeast 471 542 21,900 -1,636 Descending Boston Center
08:42AM 42.1811 -75.5703 122° Southeast 460 529 20,200 -1,686 Descending Boston Center
08:43AM 42.1164 -75.4292 122° Southeast 448 516 18,500 -1,073 Descending Boston Center
08:44AM 42.0536 -75.2892 121° Southeast 440 506 18,000 -246 Descending Boston Center
08:45AM 41.9931 -75.1314 117° Southeast 442 509 18,000  Level Boston Center
08:46AM 41.9381 -74.9850 117° Southeast 440 506 18,000 -246 Level Boston Center
08:47AM 41.8628 -74.8608 129° Southeast 440 506 17,500 -1,537 Descending Boston Center
08:48AM 41.7725 -74.7647 142° Southeast 418 481 14,900 -2,430 Descending Boston Center
08:49AM 41.6889 -74.6756 141° Southeast 389 448 12,600 -2,000 Descending Boston Center
08:50AM 41.6064 -74.5886 142° Southeast 353 406 10,800 -1,475 Descending Boston Center
08:51AM 41.5400 -74.5181 141° Southeast 310 357 9,600 -1,426 Descending Boston Center
08:52AM 41.4786 -74.4547 142° Southeast 284 327 7,900 -1,230 Descending Boston Center
08:53AM 41.4156 -74.4025 148° Southeast 273 314 7,100 -397 Descending Boston Center
08:54AM 41.3442 -74.3889 172° South 277 319 7,100 -54 Level Boston Center
08:55AM 41.2833 -74.3333 146° Southeast 288 331 7,000 -595 Descending New York TRACON
08:56AM 41.2167 -74.3000 159° South 264 304 6,000 -1,000 Descending New York TRACON
08:57AM 41.1500 -74.2500 151° Southeast 263 303 5,100 -526 Descending New York TRACON
08:58AM 41.0833 -74.2167 159° South 272 313 5,000 -53 Descending New York TRACON
08:59AM 41.0333 -74.1833 153° Southeast 267 307 5,000 -421 Level New York TRACON
09:00AM 40.9667 -74.1333 150° Southeast 255 293 4,200 -684 Descending New York TRACON
09:01AM 40.9000 -74.1000 159° South 257 296 3,700 -632 Descending New York TRACON
09:02AM 40.8333 -74.0667 159° South 242 278 3,000 -850 Descending New York TRACON
09:03AM 40.7833 -74.1000 207° Southwest 218 251 2,000 -947 Descending New York TRACON
09:04AM 40.7500 -74.1333 217° Southwest 163 188 1,200 -887 Descending New York TRACON
09:05AM 40.7167 -74.1500 201° Southwest 135 155 300 -885 Descending New York TRACON

Login

Don't have an account? Register now (free) for customized features, flight alerts, and more!